Saudade — FAA3845 — position and weather

sailwx.info

Track history (hours):
 
Tides and Currents Weather Stations Pressure Air Temp Water Temp Dewpoint Dewpoint Depression Visibility Wind Speed Wind Dir Waves Ship Positions

Saudade

Last reported at 2017-Aug-21 09:58 UTC. Time now 2017-Aug-21 10:17 UTC.
Position N 47°42' W 003°43'.

Type: Pleasure craft. MMSI: 227116860.

Date/timePositionNaut miles runAvg speedWind from/ knotsBaromVisibWave heightAir tempDewpointWater temp
2017-Aug-21 09:58N 47°42' W 003°43'3 7.1
2017-Aug-21 09:30N 47°42' W 003°38'4 7.3
2017-Aug-21 09:00N 47°41' W 003°33'4 7.3
2017-Aug-21 08:30N 47°40' W 003°27'3 5.2
2017-Aug-21 08:00N 47°38' W 003°25'0 0.5
2017-Aug-21 07:28N 47°38' W 003°25'0 0.0
2017-Aug-20 16:18N 47°38' W 003°25'0 0.0
2017-Aug-20 16:00N 47°38' W 003°25'0 0.0
2017-Aug-20 15:30N 47°38' W 003°25'0 0.0
2017-Aug-20 15:00N 47°38' W 003°25'0 0.0
2017-Aug-20 14:30N 47°38' W 003°25'0 0.0
2017-Aug-20 14:00N 47°38' W 003°25'0 0.0
2017-Aug-20 13:30N 47°38' W 003°25'0 0.0
2017-Aug-20 13:00N 47°38' W 003°25'0 0.0
2017-Aug-20 12:30N 47°38' W 003°25'0 0.0
2017-Aug-20 12:00N 47°38' W 003°25'0 0.0
2017-Aug-20 11:30N 47°38' W 003°25'0 0.0
2017-Aug-20 11:00N 47°38' W 003°25'0 0.0
2017-Aug-20 10:30N 47°38' W 003°25'2 4.2
2017-Aug-20 10:01N 47°36' W 003°23'3 6.8
2017-Aug-20 09:31N 47°33' W 003°20'4 7.0
2017-Aug-20 09:00N 47°30' W 003°17'4 7.0
2017-Aug-20 08:30N 47°27' W 003°14'4 7.4
2017-Aug-20 08:00N 47°24' W 003°12'4 7.5
2017-Aug-20 07:30N 47°21' W 003°09'1 0.0
2017-Aug-18 17:28N 47°20' W 003°09'0 0.0
2017-Aug-18 16:58N 47°20' W 003°09'0 0.0
2017-Aug-18 16:28N 47°20' W 003°09'0 0.0
2017-Aug-18 15:58N 47°20' W 003°09'0 0.0
2017-Aug-18 15:28N 47°20' W 003°09'0 0.0
2017-Aug-18 14:58N 47°20' W 003°09'0 0.0
2017-Aug-18 14:28N 47°20' W 003°09'0 0.0
2017-Aug-18 13:28N 47°20' W 003°09'0 0.0
2017-Aug-18 12:58N 47°20' W 003°09'0 0.0
2017-Aug-18 12:28N 47°20' W 003°09'0 0.0
2017-Aug-18 11:58N 47°20' W 003°09'0 0.0
2017-Aug-18 11:28N 47°20' W 003°09'0 0.0
2017-Aug-18 10:58N 47°20' W 003°09'0 0.0
2017-Aug-18 10:25N 47°20' W 003°09'0 0.0
2017-Aug-18 09:58N 47°20' W 003°09'0 0.0
2017-Aug-18 09:28N 47°20' W 003°09'0 0.0
2017-Aug-18 08:58N 47°20' W 003°09'0 0.0
2017-Aug-18 08:28N 47°20' W 003°09'0 0.0
2017-Aug-18 07:55N 47°20' W 003°09'0 0.0
2017-Aug-18 07:25N 47°20' W 003°09'0 0.0
2017-Aug-17 14:17N 47°20' W 003°09'1 3.3
2017-Aug-17 14:00N 47°21' W 003°09'3 5.7
2017-Aug-17 13:30N 47°23' W 003°12'0 0.0
2017-Aug-16 10:43N 47°22' W 003°13'0 0.1
2017-Aug-16 10:28N 47°22' W 003°13'1 3.1
2017-Aug-16 10:00N 47°24' W 003°14'2 4.9
2017-Aug-16 09:30N 47°22' W 003°17'  
2017-Aug-12 15:11N 47°18' W 003°04'1 4.9
2017-Aug-12 15:01N 47°18' W 003°03'3 6.2
2017-Aug-12 14:30N 47°20' W 002°59'3 5.9
2017-Aug-12 14:00N 47°22' W 002°56'1 1.2
2017-Aug-12 13:25N 47°23' W 002°56'0 0.0
2017-Aug-12 12:58N 47°23' W 002°56'0 0.0
2017-Aug-12 12:28N 47°23' W 002°56'0 0.0
2017-Aug-12 11:55N 47°23' W 002°56'0 0.7
2017-Aug-12 11:30N 47°23' W 002°56'4 7.7
2017-Aug-12 11:00N 47°27' W 002°57'4 9.0
2017-Aug-12 10:30N 47°31' W 002°59'4 7.1
2017-Aug-12 10:00N 47°34' W 003°01'1 1.9
2017-Aug-12 09:30N 47°35' W 003°02'0 0.0
2017-Aug-12 09:00N 47°35' W 003°02'0 0.0
2017-Aug-12 08:30N 47°35' W 003°02'0 0.0
2017-Aug-12 08:00N 47°35' W 003°02'0 0.0
2017-Aug-12 07:30N 47°35' W 003°02'0 0.0
2017-Aug-12 07:00N 47°35' W 003°02'0 0.0
2017-Aug-12 06:30N 47°35' W 003°02'0 0.0
2017-Aug-12 06:00N 47°35' W 003°02'0 0.0
2017-Aug-11 10:04N 47°35' W 003°02'0 0.0
2017-Aug-11 09:58N 47°35' W 003°02'  
Track history (hours):
 
Tides and Currents Weather Stations Pressure Air Temp Water Temp Dewpoint Dewpoint Depression Visibility Wind Speed Wind Dir Waves Ship Positions

Saudade

Last reported at 2017-Aug-21 09:58 UTC. Time now 2017-Aug-21 10:17 UTC.
Position N 47°42' W 003°43'.

Type: Pleasure craft. MMSI: 227116860.

Date/timePositionNaut miles runAvg speedWind from/ knotsBaromVisibWave heightAir tempDewpointWater temp
2017-Aug-21 09:58N 47°42' W 003°43'3 7.1
2017-Aug-21 09:30N 47°42' W 003°38'4 7.3
2017-Aug-21 09:00N 47°41' W 003°33'4 7.3
2017-Aug-21 08:30N 47°40' W 003°27'3 5.2
2017-Aug-21 08:00N 47°38' W 003°25'0 0.5
2017-Aug-21 07:28N 47°38' W 003°25'0 0.0
2017-Aug-20 16:18N 47°38' W 003°25'0 0.0
2017-Aug-20 16:00N 47°38' W 003°25'0 0.0
2017-Aug-20 15:30N 47°38' W 003°25'0 0.0
2017-Aug-20 15:00N 47°38' W 003°25'0 0.0
2017-Aug-20 14:30N 47°38' W 003°25'0 0.0
2017-Aug-20 14:00N 47°38' W 003°25'0 0.0
2017-Aug-20 13:30N 47°38' W 003°25'0 0.0
2017-Aug-20 13:00N 47°38' W 003°25'0 0.0
2017-Aug-20 12:30N 47°38' W 003°25'0 0.0
2017-Aug-20 12:00N 47°38' W 003°25'0 0.0
2017-Aug-20 11:30N 47°38' W 003°25'0 0.0
2017-Aug-20 11:00N 47°38' W 003°25'0 0.0
2017-Aug-20 10:30N 47°38' W 003°25'2 4.2
2017-Aug-20 10:01N 47°36' W 003°23'3 6.8
2017-Aug-20 09:31N 47°33' W 003°20'4 7.0
2017-Aug-20 09:00N 47°30' W 003°17'4 7.0
2017-Aug-20 08:30N 47°27' W 003°14'4 7.4
2017-Aug-20 08:00N 47°24' W 003°12'4 7.5
2017-Aug-20 07:30N 47°21' W 003°09'1 0.0
2017-Aug-18 17:28N 47°20' W 003°09'0 0.0
2017-Aug-18 16:58N 47°20' W 003°09'0 0.0
2017-Aug-18 16:28N 47°20' W 003°09'0 0.0
2017-Aug-18 15:58N 47°20' W 003°09'0 0.0
2017-Aug-18 15:28N 47°20' W 003°09'0 0.0
2017-Aug-18 14:58N 47°20' W 003°09'0 0.0
2017-Aug-18 14:28N 47°20' W 003°09'0 0.0
2017-Aug-18 13:28N 47°20' W 003°09'0 0.0
2017-Aug-18 12:58N 47°20' W 003°09'0 0.0
2017-Aug-18 12:28N 47°20' W 003°09'0 0.0
2017-Aug-18 11:58N 47°20' W 003°09'0 0.0
2017-Aug-18 11:28N 47°20' W 003°09'0 0.0
2017-Aug-18 10:58N 47°20' W 003°09'0 0.0
2017-Aug-18 10:25N 47°20' W 003°09'0 0.0
2017-Aug-18 09:58N 47°20' W 003°09'0 0.0
2017-Aug-18 09:28N 47°20' W 003°09'0 0.0
2017-Aug-18 08:58N 47°20' W 003°09'0 0.0
2017-Aug-18 08:28N 47°20' W 003°09'0 0.0
2017-Aug-18 07:55N 47°20' W 003°09'0 0.0
2017-Aug-18 07:25N 47°20' W 003°09'0 0.0
2017-Aug-17 14:17N 47°20' W 003°09'1 3.3
2017-Aug-17 14:00N 47°21' W 003°09'3 5.7
2017-Aug-17 13:30N 47°23' W 003°12'0 0.0
2017-Aug-16 10:43N 47°22' W 003°13'0 0.1
2017-Aug-16 10:28N 47°22' W 003°13'1 3.1
2017-Aug-16 10:00N 47°24' W 003°14'2 4.9
2017-Aug-16 09:30N 47°22' W 003°17'  
2017-Aug-12 15:11N 47°18' W 003°04'1 4.9
2017-Aug-12 15:01N 47°18' W 003°03'3 6.2
2017-Aug-12 14:30N 47°20' W 002°59'3 5.9
2017-Aug-12 14:00N 47°22' W 002°56'1 1.2
2017-Aug-12 13:25N 47°23' W 002°56'0 0.0
2017-Aug-12 12:58N 47°23' W 002°56'0 0.0
2017-Aug-12 12:28N 47°23' W 002°56'0 0.0
2017-Aug-12 11:55N 47°23' W 002°56'0 0.7
2017-Aug-12 11:30N 47°23' W 002°56'4 7.7
2017-Aug-12 11:00N 47°27' W 002°57'4 9.0
2017-Aug-12 10:30N 47°31' W 002°59'4 7.1
2017-Aug-12 10:00N 47°34' W 003°01'1 1.9
2017-Aug-12 09:30N 47°35' W 003°02'0 0.0
2017-Aug-12 09:00N 47°35' W 003°02'0 0.0
2017-Aug-12 08:30N 47°35' W 003°02'0 0.0
2017-Aug-12 08:00N 47°35' W 003°02'0 0.0
2017-Aug-12 07:30N 47°35' W 003°02'0 0.0
2017-Aug-12 07:00N 47°35' W 003°02'0 0.0
2017-Aug-12 06:30N 47°35' W 003°02'0 0.0
2017-Aug-12 06:00N 47°35' W 003°02'0 0.0
2017-Aug-11 10:04N 47°35' W 003°02'0 0.0
2017-Aug-11 09:58N 47°35' W 003°02'  

Dump ship's entire track history